Location: Bucharest
(44.4268°N, 26.1025°E)
Time: 16:53:18
(UTC+02:00)

Envisat - Visible Passes

Search period start: 24 January 2022 00:00
Search period end: 03 February 2022 00:00
Orbit: 764 x 766 km, 98.2° (Epoch: 23 January)

Date Brightness Start Highest point End Pass type
(mag) Time Alt. Az. Time Alt. Az. Time Alt. Az.
24 Jan 5.0 04:16:27 10° NE 04:20:38 25° E 04:24:47 10° SSE visible
24 Jan 3.3 05:55:01 10° N 05:59:47 42° WNW 06:04:32 10° SW visible
25 Jan 6.0 03:41:43 10° ENE 03:43:19 11° E 03:44:55 10° ESE visible
25 Jan 2.9 05:17:55 10° NNE 05:23:02 89° WNW 05:28:06 10° SSW visible
25 Jan 4.6 06:58:57 10° NNW 07:01:17 13° WNW 07:03:37 10° W visible
26 Jan 4.1 04:41:14 10° NNE 04:46:04 42° E 04:50:52 10° S visible
26 Jan 3.9 06:20:42 10° N 06:24:52 26° WNW 06:29:01 10° WSW visible
27 Jan 5.3 04:05:13 10° NE 04:08:55 20° E 04:12:36 10° SE visible
27 Jan 3.0 05:43:17 10° N 05:48:15 53° WNW 05:53:10 10° SSW visible
28 Jan 3.1 05:06:20 10° NNE 05:11:26 73° ESE 05:16:30 10° S visible
28 Jan 4.4 06:46:46 10° NNW 06:49:51 16° WNW 06:52:55 10° W visible
29 Jan 4.5 04:29:48 10° NNE 04:34:25 34° E 04:39:00 10° SSE visible
29 Jan 3.6 06:08:54 10° N 06:13:22 32° WNW 06:17:50 10° SW visible
30 Jan 5.6 03:54:08 10° NE 03:57:12 16° E 04:00:14 10° SE visible
30 Jan 2.9 05:31:38 10° N 05:36:41 67° WNW 05:41:43 10° SSW visible
31 Jan 3.5 04:54:47 10° NNE 04:59:49 58° E 05:04:48 10° S visible
31 Jan 4.2 06:34:46 10° NNW 06:38:23 20° WNW 06:42:01 10° WSW visible
31 Jan 6.3 17:53:51 10° WSW 17:55:33 12° W 17:57:15 10° WNW visible
01 Feb 4.9 04:18:27 10° NE 04:22:44 27° E 04:27:00 10° SSE visible
01 Feb 3.4 05:57:08 10° N 06:01:51 40° WNW 06:06:33 10° SW visible
02 Feb 5.9 03:43:24 10° ENE 03:45:27 12° E 03:47:29 10° ESE visible
02 Feb 2.8 05:20:00 10° NNE 05:25:06 84° WNW 05:30:11 10° SSW visible
02 Feb 4.7 07:01:16 10° NNW 07:03:19 12° WNW 07:05:22 10° W visible
